Station: Mackay  

  Atmospheric Gas Attenuation - ITU Rec 676-11   ----------------- dB/100km -----------------
Date Time Temp RH % AH g/m3 Dew Point Wind Direction Speed kph Gust kph Barometer mB Rainfall Since 9am 24GHz 47GHz 76GHz 122GHz 134GHz 241GHz
10/05 19:50 23.2 82 17.05 20 22 30 1022 0 36.9 37.6 70.3 185.9 201.4 699.0
10/05 19:40 23.3 82 17.14 20.1 19 22 1022.2 0 37.1 37.7 70.7 186.8 202.5 702.9
10/05 19:30 23.2 82 17.05 20 17 35 1021.9 0 36.9 37.6 70.3 185.9 201.3 698.9
10/05 19:20 23.2 83 17.25 20.2 13 17 1021.7 0 37.4 37.9 71.3 188.3 204.4 709.4
10/05 19:10 23.1 82 16.95 19.9 17 20 1021.5 0 36.7 37.4 69.9 184.8 200.0 694.4
10/05 19:00 23.1 82 16.95 19.9 17 35 1021.4 0 36.7 37.4 69.9 184.8 200.0 694.4
10/05 18:50 23.2 82 17.05 20 20 30 1021.5 0 36.9 37.6 70.3 185.8 201.3 698.8
10/05 18:40 23.1 82 16.95 19.9 19 30 1021.4 0 36.7 37.4 69.9 184.8 200.0 694.4
10/05 18:30 23.1 83 17.16 20.1 19 30 1021.5 0 37.2 37.8 70.9 187.4 203.2 705.5
10/05 18:20 23.1 84 17.36 20.2 15 20 1021.5 0 37.6 38.2 71.9 189.9 206.3 716.1
10/05 18:10 23 84 17.26 20.1 19 26 1021.8 0 37.4 38.1 71.5 188.9 205.1 711.9
10/05 18:00 22.9 85 17.37 20.2 19 32 1021.7 0 37.7 38.3 72.1 190.5 207.0 718.6
10/05 17:50 23 84 17.26 20.1 19 24 1021.6 0 37.4 38.0 71.5 188.9 205.0 711.8
10/05 17:40 23.1 80 16.54 19.5 19 24 1021.5 0 35.9 36.7 68.1 179.8 193.9 672.9
10/05 17:30 23.3 79 16.52 19.5 19 32 1021.5 0 35.8 36.5 67.8 179.1 193.1 670.1
10/05 17:20 23.5 80 16.92 19.8 13 19 1021.3 0 36.6 37.2 69.4 183.4 198.5 689.1
10/05 17:10 23.5 78 16.49 19.4 13 19 1021.2 0 35.7 36.4 67.5 178.2 192.1 666.7
10/05 17:00 23.5 77 16.28 19.2 17 28 1021.3 0 35.3 36.0 66.5 175.7 189.0 655.9
10/05 16:50 23.5 77 16.28 19.2 15 22 1021.1 0 35.3 36.0 66.5 175.7 189.0 655.8
10/05 16:40 23.5 78 16.49 19.4 20 30 1020.7 0 35.7 36.4 67.4 178.1 192.0 666.5
10/05 16:30 23.6 79 16.8 19.7 17 26 1020.6 0 36.4 36.9 68.8 181.6 196.4 681.6
10/05 16:20 23.7 80 17.11 20 17 24 1020.7 0 37.0 37.4 70.1 185.2 200.7 696.9
10/05 16:10 23.8 79 16.99 19.9 19 26 1020.6 0 36.8 37.1 69.4 183.5 198.7 689.7
10/05 16:00 24.1 79 17.28 20.2 19 28 1020.6 0 37.4 37.6 70.5 186.3 202.2 702.1
10/05 15:50 24 79 17.19 20.1 19 22 1020.6 0 37.2 37.4 70.2 185.4 201.1 698.3
10/05 15:40 23.7 79 16.9 19.8 19 26 1020.5 0 36.6 37.0 69.1 182.6 197.6 685.9
10/05 15:30 24 79 17.19 20.1 19 28 1020.3 0 37.2 37.4 70.2 185.4 201.1 698.2
10/05 15:20 24 80 17.4 20.3 17 22 1020.3 0 37.6 37.8 71.1 188.0 204.3 709.2
10/05 15:10 24.1 77 16.85 19.8 17 20 1020.2 0 36.4 36.7 68.5 181.0 195.7 679.5
10/05 15:00 24.7 75 16.98 20 17 32 1020.2 0 36.7 36.7 68.6 181.1 196.1 680.9
10/05 14:50 24.5 76 17.01 20 22 30 1020.1 0 36.7 36.9 68.9 182.0 197.1 684.2
10/05 14:40 24 78 16.97 19.9 19 26 1020.2 0 36.7 37.0 69.1 182.7 197.8 686.7
10/05 14:30 24 77 16.75 19.7 19 28 1020.2 0 36.2 36.6 68.1 180.0 194.5 675.3
10/05 14:20 24.3 74 16.37 19.4 20 30 1020.3 0 35.4 35.8 66.2 174.8 188.2 653.2
10/05 14:10 24.8 77 17.53 20.5 19 28 1020.3 0 37.8 37.7 71.0 187.6 204.0 708.5
10/05 14:00 24.9 77 17.63 20.6 19 28 1020.4 0 38.0 37.8 71.3 188.6 205.3 712.8
10/05 13:50 25 77 17.72 20.7 17 24 1020.4 0 38.2 38.0 71.7 189.4 206.3 716.6
10/05 13:40 24.6 76 17.1 20.1 15 24 1020.4 0 36.9 37.0 69.2 182.9 198.2 688.1
10/05 13:30 24.6 75 16.88 19.9 19 32 1020.5 0 36.5 36.6 68.2 180.2 194.9 676.8
10/05 13:20 24.5 76 17.01 20 17 26 1020.6 0 36.7 36.9 68.9 182.0 197.1 684.4
10/05 13:10 24.7 74 16.75 19.8 20 28 1020.8 0 36.2 36.3 67.6 178.5 192.8 669.4
10/05 13:00 24.6 74 16.65 19.7 22 37 1020.9 0 36.0 36.2 67.2 177.5 191.6 665.2
10/05 12:50 24.4 71 15.8 18.8 22 33 1021 0 34.2 34.8 63.6 167.9 179.8 623.9
10/05 12:40 24.7 73 16.52 19.5 26 32 1021.2 0 35.7 35.9 66.5 175.8 189.5 657.9
10/05 12:30 24.4 75 16.69 19.7 20 30 1021.2 0 36.1 36.4 67.6 178.5 192.7 669.1
10/05 12:20 24.5 75 16.78 19.8 19 26 1021.5 0 36.2 36.5 67.9 179.4 193.8 673.0
10/05 12:10 24.3 78 17.26 20.2 17 24 1021.6 0 37.3 37.5 70.3 185.7 201.5 699.7
10/05 12:00 24.1 75 16.41 19.4 19 32 1021.6 0 35.5 36.0 66.6 175.9 189.4 657.6
10/05 11:50 24.2 76 16.72 19.7 19 24 1021.7 0 36.1 36.5 67.9 179.4 193.8 672.7
10/05 11:40 24.7 76 17.2 20.2 17 26 1021.8 0 37.1 37.2 69.7 184.0 199.6 693.0
10/05 11:30 23.8 78 16.78 19.7 19 30 1022 0 36.3 36.8 68.6 181.1 195.7 679.4
10/05 11:20 23.5 77 16.28 19.2 26 32 1022 0 35.3 36.0 66.6 175.8 189.1 656.2
10/05 11:10 23.4 78 16.4 19.3 19 24 1022.1 0 35.5 36.3 67.2 177.5 191.1 663.3
10/05 11:00 23.7 76 16.26 19.2 22 39 1022.1 0 35.2 35.9 66.3 175.1 188.3 653.6
10/05 10:50 24 75 16.32 19.3 24 32 1022.1 0 35.3 35.9 66.3 175.1 188.4 654.1
10/05 10:40 23.7 77 16.47 19.4 19 30 1022.2 0 35.7 36.3 67.3 177.6 191.4 664.4
10/05 10:30 24.3 75 16.6 19.6 22 35 1022.3 0 35.9 36.3 67.3 177.8 191.8 665.9
10/05 10:20 24.2 75 16.5 19.5 20 24 1022.4 0 35.7 36.2 67.0 176.9 190.6 661.7
10/05 10:10 24.5 77 17.23 20.2 20 28 1022.4 0 37.2 37.4 70.0 185.0 200.7 696.7
10/05 10:00 24.2 76 16.72 19.7 20 30 1022.5 0 36.1 36.6 68.0 179.5 193.9 673.0
10/05 09:50 24.2 78 17.16 20.1 20 32 1022.4 0 37.1 37.4 70.0 184.8 200.4 695.8
10/05 09:40 23.5 77 16.28 19.2 20 28 1022.4 0 35.3 36.1 66.6 175.8 189.1 656.4
10/05 09:30 23.8 76 16.35 19.3 20 35 1022.4 0 35.4 36.1 66.6 176.0 189.4 657.5
10/05 09:20 23.5 78 16.49 19.4 20 30 1022.4 0 35.7 36.4 67.5 178.4 192.2 667.3
10/05 09:10 23 79 16.24 19.2 20 28 1022.3 0 35.2 36.2 66.8 176.5 189.8 658.6
10/05 09:00 23 80 16.44 19.4 19 28 1022 0 35.7 36.5 67.7 178.9 192.7 668.9
10/05 08:50 22.8 81 16.46 19.4 19 28 1022 0 35.7 36.7 68.0 179.6 193.5 671.7
10/05 08:40 22.6 82 16.47 19.4 15 19 1022 0 35.8 36.8 68.2 180.2 194.2 673.9
10/05 08:30 22.2 83 16.29 19.2 17 28 1021.8 0 35.4 36.6 67.7 178.9 192.5 668.0
10/05 08:20 21.5 83 15.65 18.5 22 30 1021.8 0 34.1 35.7 65.4 172.7 184.7 640.6
10/05 08:10 21.5 85 16.03 18.9 20 26 1021.7 0 34.9 36.4 67.1 177.3 190.3 660.4
10/05 08:00 21.4 85 15.93 18.8 19 30 1021.6 0 34.7 36.3 66.8 176.3 189.1 655.9
10/05 07:50 21 86 15.75 18.6 17 20 1021.5 0 34.4 36.1 66.3 175.0 187.3 649.9
10/05 07:40 20.9 86 15.66 18.5 19 24 1021.3 0 34.2 36.0 65.9 174.1 186.2 645.9
10/05 07:30 20.7 87 15.66 18.5 19 30 1021.2 0 34.2 36.1 66.1 174.6 186.7 647.6
10/05 07:20 20.3 88 15.48 18.2 19 22 1021.1 0 33.9 35.9 65.6 173.2 185.0 641.5
10/05 07:10 20.1 89 15.47 18.2 17 22 1020.8 0 33.9 35.9 65.7 173.5 185.3 642.5
10/05 07:00 20 89 15.38 18.1 17 26 1020.8 0 33.7 35.8 65.4 172.6 184.1 638.6
10/05 06:50 20 89 15.38 18.1 17 20 1020.8 0 33.7 35.8 65.4 172.6 184.1 638.6
10/05 06:40 20 89 15.38 18.1 19 26 1020.5 0 33.7 35.8 65.4 172.6 184.1 638.4
10/05 06:30 20.1 88 15.3 18.1 19 30 1020.4 0 33.5 35.6 64.9 171.4 182.6 633.4
10/05 06:20 19.9 89 15.29 18 19 26 1020.3 0 33.5 35.7 65.0 171.7 183.0 634.4
10/05 06:10 19.9 88 15.12 17.9 19 20 1020.1 0 33.1 35.3 64.2 169.6 180.4 625.4
10/05 06:00 20 88 15.21 18 20 32 1019.9 0 33.3 35.5 64.6 170.4 181.5 629.2
10/05 05:50 20.2 88 15.39 18.1 20 26 1019.9 0 33.7 35.7 65.2 172.2 183.7 637.0
10/05 05:40 20.2 88 15.39 18.1 19 24 1019.8 0 33.7 35.7 65.2 172.2 183.7 637.0
10/05 05:30 20.2 88 15.39 18.1 17 30 1019.9 0 33.7 35.7 65.2 172.2 183.7 637.0
10/05 05:20 20.2 88 15.39 18.1 20 26 1019.8 0 33.7 35.7 65.2 172.2 183.7 637.0
10/05 05:10 20.1 89 15.47 18.2 19 20 1019.6 0 33.9 35.9 65.7 173.4 185.1 641.9
10/05 05:00 20 89 15.38 18.1 19 26 1019.4 0 33.7 35.8 65.3 172.4 184.0 637.9
10/05 04:50 20.2 89 15.56 18.3 17 22 1019.2 0 34.0 36.0 66.0 174.2 186.2 645.6
10/05 04:40 20.3 89 15.65 18.4 19 26 1019.3 0 34.2 36.1 66.3 175.1 187.3 649.6
10/05 04:30 20.4 89 15.74 18.5 17 26 1019.3 0 34.4 36.3 66.6 176.0 188.4 653.5
10/05 04:20 20.3 89 15.65 18.4 20 26 1019.1 0 34.2 36.1 66.3 175.0 187.3 649.5
10/05 04:10 20.3 89 15.65 18.4 19 24 1019.1 0 34.2 36.1 66.3 175.0 187.3 649.5
10/05 04:00 20.3 89 15.65 18.4 19 26 1019 0 34.2 36.1 66.3 175.0 187.2 649.4
10/05 03:50 20.4 90 15.92 18.7 19 22 1019 0 34.8 36.6 67.4 178.1 191.1 662.9
10/05 03:40 20.2 90 15.74 18.5 17 20 1019 0 34.4 36.3 66.8 176.4 188.9 655.1
10/05 03:30 20.3 90 15.83 18.6 17 24 1019.1 0 34.6 36.5 67.1 177.3 190.0 659.0
10/05 03:20 20.2 91 15.91 18.7 17 20 1019.1 0 34.8 36.6 67.6 178.5 191.5 664.2

Last Refresh: 10-May-2026 19:29:09

Bureau of Meteorology